Weather History for KOXR - August, 2014

Change the Weather History Date:

Friday, August 29, 2014

  Actual Average Record
Temperature  
Mean Temperature 65 °F -  
Max Temperature 75 °F 75 °F 82 °F (1996)
Min Temperature 57 °F 59 °F 50 °F (1955)
Growing Degree Days 15 (Base 50)    
Moisture  
Dew Point 60 °F    
Average Humidity 80    
Maximum Humidity 90    
Minimum Humidity 61    
Precipitation  
Precipitation 0.00 in - - ()
Sea Level Pressure  
Sea Level Pressure 29.85 in    
Wind  
Wind Speed 6 mph (WNW)    
Max Wind Speed 17 mph    
Max Gust Speed 24 mph    
Visibility 8 miles    
Events      
Averages and records for this station are not official NWS values.
T = Trace of Precipitation, MM = Missing Value Source: NWS Daily Summary

Daily Weather History Graph

Daily Weather History Graph

Search for Another Location

Airport or City:

Trip Planner

Search our weather history database for the weather conditions in past years. The results will help you decide how hot, cold, wet, or windy it might be!

Date:

Astronomy

Aug. 29, 2014 Rise Set
Actual Time 6:28 AM PDT 7:26 PM PDT
Civil Twilight 6:02 AM PDT 7:52 PM PDT
Nautical Twilight 5:31 AM PDT 8:22 PM PDT
Astronomical Twilight 5:00 AM PDT 8:54 PM PDT
Moon 10:10 AM PDT (8/29) 9:40 PM PDT (8/29)
Length of Visible Light 13h 49m
Length of Day
12h 58m
Waxing Crescent, 16% of the Moon is Illuminated
Aug 29
Waxing Crescent
Sep 2
First Quarter
Sep 8
Full
Sep 15
Last Quarter
Sep 23
New

Hourly Weather History & Observations

Time (PDT) Temp. Dew Point Humidity Pressure Visibility Wind Dir Wind Speed Gust Speed Precip Events Conditions
12:51 AM 63.0 °F 60.1 °F 90% 29.88 in 5.0 mi WNW 5.8 mph - N/A   Clear
1:51 AM 63.0 °F 60.1 °F 90% 29.87 in 7.0 mi Calm Calm - N/A   Clear
2:51 AM 62.1 °F 59.0 °F 90% 29.86 in 6.0 mi Calm Calm - N/A   Clear
3:51 AM 61.0 °F 57.0 °F 87% 29.86 in 6.0 mi Calm Calm - N/A   Clear
4:51 AM 59.0 °F 55.9 °F 90% 29.86 in 7.0 mi Calm Calm - N/A   Clear
5:51 AM 60.1 °F 57.0 °F 90% 29.87 in 7.0 mi Calm Calm - N/A   Clear
6:51 AM 57.9 °F 55.0 °F 90% 29.88 in 6.0 mi Calm Calm - N/A   Clear
8:51 AM 66.9 °F 60.1 °F 79% 29.89 in 8.0 mi WNW 6.9 mph - N/A   Clear
9:51 AM 69.1 °F 59.0 °F 70% 29.89 in 10.0 mi WNW 9.2 mph - N/A   Clear
10:51 AM 72.0 °F 60.1 °F 66% 29.88 in 10.0 mi West 11.5 mph - N/A   Clear
11:51 AM 73.0 °F 59.0 °F 61% 29.88 in 10.0 mi West 11.5 mph - N/A   Clear
12:51 PM 73.9 °F 61.0 °F 64% 29.87 in 10.0 mi West 10.4 mph - N/A   Clear
1:51 PM 73.9 °F 62.1 °F 66% 29.86 in 9.0 mi WNW 15.0 mph - N/A   Clear
3:51 PM 73.9 °F 60.1 °F 62% 29.83 in 10.0 mi West 17.3 mph 24.2 mph N/A   Clear
4:51 PM 72.0 °F 62.1 °F 71% 29.82 in 9.0 mi West 16.1 mph - N/A   Clear
5:51 PM 69.1 °F 62.1 °F 78% 29.81 in 9.0 mi West 16.1 mph - N/A   Clear
6:51 PM 66.9 °F 61.0 °F 81% 29.80 in 8.0 mi West 16.1 mph - N/A   Clear
8:51 PM 64.9 °F 61.0 °F 87% 29.83 in 7.0 mi NW 3.5 mph - N/A   Clear
9:51 PM 64.0 °F 61.0 °F 90% 29.82 in 6.0 mi West 4.6 mph - N/A   Clear
10:51 PM 64.0 °F 61.0 °F 90% 29.81 in 6.0 mi West 4.6 mph - N/A   Clear
11:51 PM 64.0 °F 61.0 °F 90% 29.81 in 6.0 mi Calm Calm - N/A   Clear